This is the latest recevied weather packets stored in our database for station/object N5TDX. If no packets are shown the sender has not sent any weather packets the latest 1 day(s).
| Time | Temp. | Humidity | Pressure | Rain* | Wind** | Luminosity | Snow |
|---|---|---|---|---|---|---|---|
| 1778035039 | 20.56° C | 66% | 1004.9 hPa | 0 mm | 0 m/s | - | - |
| 1778034737 | 20.56° C | 66% | 1004.7 hPa | 0 mm | 0.89 m/s, 281° | - | - |
| 1778034433 | 21.11° C | 66% | 1005 hPa | 0 mm | 0.89 m/s, 91° | - | - |
| 1778034131 | 21.11° C | 65% | 1004.7 hPa | 0 mm | 0.89 m/s, 32° | - | - |
| 1778033829 | 21.11° C | 65% | 1004.5 hPa | 0 mm | 0.45 m/s, 56° | - | - |
| 1778033526 | 21.11° C | 64% | 1004.7 hPa | 0 mm | 1.34 m/s, 52° | - | - |
| 1778033223 | 21.67° C | 65% | 1004.6 hPa | 0 mm | 0.45 m/s, 98° | - | - |
| 1778032920 | 21.67° C | 65% | 1004.2 hPa | 0 mm | 0.45 m/s, 9° | - | - |
| 1778032618 | 21.67° C | 65% | 1004.4 hPa | 0 mm | 0.45 m/s, 25° | - | - |
| 1778032315 | 22.22° C | 65% | 1004.2 hPa | 0 mm | 0.45 m/s, 37° | - | - |
| 1778032012 | 22.22° C | 64% | 1004 hPa | 0 mm | 0.45 m/s, 20° | - | - |
| 1778031708 | 22.22° C | 64% | 1003.6 hPa | 0 mm | 0.45 m/s, 55° | - | - |
| 1778031406 | 22.22° C | 63% | 1003.9 hPa | 0 mm | 0.45 m/s, 49° | - | - |
| 1778031103 | 22.78° C | 63% | 1003.8 hPa | 0 mm | 0.89 m/s, 9° | - | - |
| 1778030799 | 22.78° C | 63% | 1003.3 hPa | 0 mm | 0 m/s | - | - |
| 1778030496 | 22.78° C | 63% | 1003.5 hPa | 0 mm | 0.45 m/s, 60° | - | - |
| 1778030193 | 22.78° C | 62% | 1003.2 hPa | 0 mm | 0.89 m/s, 2° | - | - |
| 1778029889 | 23.33° C | 62% | 1003 hPa | 0 mm | 0.89 m/s, 36° | - | - |
| 1778029588 | 23.33° C | 61% | 1002.8 hPa | 0 mm | 0 m/s | - | - |
| 1778029285 | 23.33° C | 61% | 1003 hPa | 0 mm | 0 m/s | - | - |
| 1778028982 | 23.33° C | 61% | 1003.1 hPa | 0 mm | 0.45 m/s, 53° | - | - |
| 1778028678 | 23.33° C | 61% | 1002.6 hPa | 0 mm | 0.45 m/s, 33° | - | - |
| 1778028375 | 23.89° C | 60% | 1002.9 hPa | 0 mm | 0.45 m/s, 326° | - | - |
| 1778028072 | 23.89° C | 60% | 1002.9 hPa | 0 mm | 0.89 m/s, 59° | - | - |
| 1778027768 | 23.89° C | 60% | 1002.8 hPa | 0 mm | 0.45 m/s, 13° | - | - |
* Rain latest hour (hover to see other rain measurements)
** Current wind speed in m/s (hover to see current wind gust speed)